Vorticity
nan nan nan nan nan nan nan nan nan nan nan nan nan nan nan nan nan nan nan nan nan nan
nan 8 8 8 9 8 7 7 7 8 8 9 9 9 10 9 8 9 9 12 9 nan
nan 9 9 9 8 7 8 7 8 8 9 9 9 9 10 8 8 8 9 8 8 nan
nan 8 9 8 8 8 8 9 9 9 9 9 9 10 10 8 9 9 8 8 10 nan
nan 9 9 8 8 9 9 9 9 9 9 9 9 10 9 10 10 10 10 9 9 nan
nan 9 8 8 9 9 9 9 10 9 9 9 10 10 10 11 11 10 11 10 9 nan
nan 9 9 9 9 9 9 10 9 10 10 10 10 12 11 11 11 11 10 11 12 nan
nan 9 9 9 9 10 10 11 10 10 10 10 14 8 6 9 12 12 12 12 12 nan
nan 9 9 9 10 11 10 10 10 10 10 12 8 0 5 11 15 10 11 12 12 nan
nan 9 9 10 10 10 11 11 10 10 10 10 7 6 8 13 16 12 10 9 11 nan
nan 9 10 9 10 11 11 10 10 10 11 11 7 5 9 16 17 13 11 13 11 nan
nan 10 10 10 10 11 10 10 11 10 11 9 4 5 9 19 19 13 14 14 13 nan
nan 10 10 11 10 10 10 11 9 9 10 11 8 9 8 17 19 13 15 14 11 nan
nan nan nan nan nan nan nan nan nan nan nan nan nan nan nan nan nan nan nan nan nan nan
CAPE
0 0 0 0 0 0 0 0 0 0 0 0 0 0 0 0 0 0 0 0 0 0
0 0 0 0 0 0 0 0 0 0 0 0 0 0 0 0 0 0 2 1 2 5
0 0 0 0 0 0 0 0 0 0 0 0 0 0 0 0 1 2 2 4 3 5
0 0 0 0 0 0 0 0 0 0 0 0 0 0 0 0 1 1 3 4 10 10
0 0 0 0 0 0 0 0 0 0 0 0 0 0 1 1 2 4 5 5 7 10
0 0 0 0 0 0 0 0 0 0 0 0 0 0 1 1 3 7 8 9 8 9
0 0 0 0 0 0 0 0 0 0 0 0 0 0 1 2 4 4 7 10 9 2
0 0 0 0 0 0 0 0 0 0 0 0 0 0 2 10 33 37 34 32 29 32
0 0 0 0 0 0 0 0 0 0 1 1 1 4 27 32 43 62 65 41 36 44
0 0 0 0 0 0 0 0 0 1 2 1 0 13 33 38 33 51 48 53 60 57
0 0 0 0 0 0 0 0 2 3 2 7 4 15 30 36 40 37 54 62 63 62
0 0 0 0 0 0 1 1 3 4 13 15 6 10 27 43 64 52 58 64 73 45
0 0 0 0 1 1 1 5 12 7 3 6 8 9 36 42 58 72 81 61 59 32
0 0 1 1 2 3 12 9 10 9 7 10 15 18 34 41 55 86 75 75 56 37